Flag for U.S.A. Weather past 2 weeks in Norwalk, California, U.S.A.

Now
75 °F

Sunny.


Feels Like: 77 °F
Forecast: 68 / 84 °F
Wind: 6 mph from Southwest

Location: Fullerton Municipal Airport

Current Time: Jul 25, 2014 at 8:30:13 PM

Latest Report: Jul 25, 2014 at 7:53 PM


Visibility: 9 mi

Pressure: 29.87 "Hg

Humidity: 66%

Dew point: 63 °F

Location of NorwalkLocation

Historic Weather in Norwalk — Graph

°F

Norwalk temperature yesterday

Maximum temperature yesterday: 96 °F (at 3:53 PM)
Minimum temperature yesterday: 66 °F (at 5:53 AM)
Average temperature yesterday: 81 °F

Past Weeks' High & Low Weather Summary

 TemperatureHumidityPressure
High96 °F (Jul 24, 3:53 PM)85% (Jul 12, 4:53 AM)30.05 "Hg (Jul 12, 4:53 AM)
Low65 °F (Jul 18, 5:53 AM)25% (Jul 23, 3:53 PM)29.71 "Hg (Jul 24, 5:53 PM)
Average74 °F63%29.95 "Hg
* Reported Jul 10 6:53 PM — Jul 25 6:53 PM, Norwalk, Weather by CustomWeather, © 2014

Note: Actual official high and low records may vary slightly from our data, if they occured in-between our weather recording intervals... More about our weather records

Advertising

Norwalk weather history for previous 24 hours

 ConditionsComfort  
Time TempWeatherWind HumidityBarometerVisibility
6:53 PM
Jul 25
79 °FSunny.8 mph60%29.85 "Hg9 mi
5:53 PM84 °FSunny.7 mph49%29.84 "Hg10 mi
4:53 PM82 °FSunny.8 mph55%29.85 "Hg10 mi
3:53 PM84 °FSunny.7 mph51%29.86 "Hg10 mi
2:53 PM84 °FSunny.5 mph51%29.88 "Hg10 mi
1:53 PM87 °FSunny.9 mph46%29.88 "Hg10 mi
12:53 PM85 °FSunny.7 mph50%29.88 "Hg10 mi
11:53 AM85 °FSunny.7 mph51%29.88 "Hg10 mi
10:53 AM83 °FSunny.5 mph51%29.88 "Hg10 mi
9:53 AM80 °FSunny.5 mph58%29.88 "Hg10 mi
8:53 AM76 °FSunny.No wind67%29.88 "Hg10 mi
7:53 AM74 °FOvercast.No wind71%29.87 "Hg10 mi
6:53 AM72 °FOvercast.6 mph76%29.87 "Hg10 mi
5:53 AM72 °FOvercast.6 mph78%29.86 "Hg10 mi
4:53 AM71 °FOvercast.No wind84%29.85 "Hg8 mi
3:53 AM71 °FPassing clouds.No wind84%29.84 "Hg9 mi
2:53 AM71 °FClear.No wind84%29.84 "Hg10 mi
1:53 AM72 °FClear.3 mph78%29.84 "Hg10 mi
12:53 AM72 °FClear.7 mph76%29.84 "Hg9 mi
11:53 PM
Jul 24
74 °FClear.9 mph69%29.82 "Hg10 mi
10:53 PM77 °FClear.No wind52%29.80 "Hg10 mi
9:53 PM79 °FClear.6 mph47%29.79 "Hg10 mi
8:53 PM81 °FSunny.5 mph44%29.76 "Hg10 mi
Weather by CustomWeather, © 2014

See weather overviewHow to use our weather pages